User: anonymous   Login
Location: Caltech
(34.1382°N, 118.1253°W)
Time: 13:28:16
(UTC-07:00)
Language:

SEDSat Delta rocket - Orbit

View from above orbital plane
View from above orbital plane
View from above satellite
View from above satellite

Ground track
Ground track

The orbit data is extracted from the following two-line orbital elements,

1 25510U 98061C   17114.95718545 +.00000666 +00000-0 +10608-3 0  9991
2 25510 031.4353 085.5611 0328154 328.9949 067.8259 14.37184899970150
Epoch (UTC): 24 April 2017 22:58:20
Eccentricity: 0.0328154
inclination: 31.4353°
perigee height: 533 km
apogee height: 1002 km
right ascension of ascending node: 85.5611°
argument of perigee: 328.9949°
revolutions per day: 14.37184899
mean anomaly at epoch: 67.8259°
orbit number at epoch: 97015

The dashed part of the orbit path shows where the satellite is in the earth's shadow,  

DLR